Location: Prairie View Elementary School
(39.8322°N, 99.5698°W)
Time: 01:36:33
(UTC+00:00)

Cosmos 407 Rocket - Pass Details

Date: 08 December 2019
Orbit: 743 x 787 km, 74.0° (Epoch: 22 January)

Event Time Altitude Azimuth Distance (km) Brightness Sun altitude
Rises 00:36:47 0° 172° (S) 3,178 6.8 -15.6°
Reaches altitude 10° 00:39:19 10° 162° (SSE) 2,264 5.9 -16.0°
Maximum altitude 00:43:50 32° 100° (E) 1,272 4.2 -16.9°
Enters shadow 00:44:58 29° 75° (ENE) 1,360 4.2 -17.1°
